SCP
0 0 0 0 -0 0 0 0 0 0 0 0 0 0 1 1 0 0 0 1 1 1 0 0 0 0 0 0 0 0 0 0 0 0 0 0 0 0 0 0 0 0 0 0 0 0 0 0 0
0 0 0 -0 0 0 0 0 0 0 0 0 0 0 1 1 0 0 0 1 1 1 1 1 1 0 0 0 0 0 0 0 0 0 0 0 0 0 0 0 0 0 0 0 0 0 0 0 0
0 0 0 0 0 0 0 0 0 0 0 0 0 1 1 1 0 0 0 0 1 1 1 1 1 1 0 0 0 0 0 0 0 0 0 0 0 0 0 0 0 0 0 0 0 0 0 0 0
0 0 -0 0 0 0 0 0 0 0 0 0 1 1 1 1 0 0 0 0 1 1 1 1 1 1 1 1 0 0 0 0 0 0 0 0 0 0 0 0 0 0 0 0 0 0 0 0 0
0 0 0 0 0 0 0 0 0 0 0 0 1 1 1 1 0 0 0 1 1 1 1 1 1 1 1 1 1 0 0 0 0 0 0 0 0 0 0 0 0 0 0 0 0 0 0 0 0
0 0 0 0 0 0 0 0 0 0 0 1 1 1 1 1 0 1 1 1 1 1 1 1 1 1 1 1 1 1 1 1 1 1 0 0 0 0 0 0 0 0 0 0 0 0 0 0 0
0 0 0 0 0 0 0 0 0 0 0 1 1 1 1 1 0 1 1 1 1 1 1 1 1 1 1 1 1 1 1 1 1 1 1 0 0 0 0 0 0 0 0 0 0 0 0 0 0
0 0 0 0 0 0 0 0 0 0 1 1 1 1 1 1 1 1 1 1 1 1 1 1 1 1 1 1 1 1 1 1 1 1 1 0 0 0 0 0 0 0 0 0 0 0 0 0 0
0 0 0 0 0 0 0 0 0 1 1 1 1 1 1 1 1 1 1 1 1 1 1 1 1 1 1 1 1 1 1 1 1 1 0 0 0 0 0 0 0 0 0 0 0 0 0 0 0
0 0 0 0 0 0 0 0 0 0 1 1 1 1 1 1 1 1 1 1 1 1 1 1 1 1 1 1 1 1 1 1 1 0 0 0 0 0 0 1 1 0 0 0 0 0 0 0 0
0 0 0 0 0 0 0 0 0 1 1 1 1 1 1 1 1 1 1 1 1 1 1 1 1 1 1 1 1 1 1 1 1 1 0 0 0 0 1 1 1 0 0 0 0 0 0 0 0
0 0 0 0 0 0 0 0 1 1 1 1 1 1 1 1 1 1 1 1 1 1 1 1 1 1 1 1 1 1 1 1 1 1 1 1 1 1 1 1 1 1 0 0 0 0 0 0 0
0 0 0 0 0 0 0 1 1 1 1 1 1 1 1 1 1 1 1 1 1 1 1 1 1 1 1 1 1 1 1 1 1 1 1 1 1 1 1 1 1 1 0 0 0 0 0 0 0
0 0 0 0 0 0 0 1 1 1 1 1 1 1 1 1 1 1 1 1 1 1 1 1 1 1 1 1 1 1 1 1 1 1 1 1 1 1 1 1 1 1 1 1 0 0 0 0 0
0 0 0 0 0 0 0 0 1 1 1 1 1 1 1 1 1 1 1 1 1 1 1 1 1 1 1 1 1 1 1 1 1 1 1 1 1 1 1 1 1 1 1 1 1 1 1 0 0
0 0 0 0 0 0 0 0 1 1 1 1 1 1 1 1 1 1 1 1 1 1 1 1 1 1 1 1 1 1 1 1 1 1 1 1 1 1 1 1 1 1 1 1 1 1 1 1 1
0 0 0 0 0 0 0 0 0 1 1 1 1 1 1 1 1 1 1 1 1 1 1 1 1 1 1 1 1 1 1 1 1 1 1 1 1 1 1 1 1 1 1 1 1 1 1 1 1
0 0 0 0 0 0 0 0 0 0 0 1 1 1 1 1 1 1 1 1 1 1 1 1 1 1 1 1 1 1 1 1 1 1 1 1 1 1 1 1 1 1 1 1 1 1 1 1 1
0 0 0 0 0 0 0 0 0 0 0 0 1 1 1 1 1 1 1 1 1 1 1 1 1 1 1 1 1 1 1 1 1 1 1 1 0 0 0 0 1 1 1 1 1 1 1 1 1
0 0 0 0 0 0 0 0 0 0 0 0 1 1 1 1 1 1 1 1 1 0 0 0 0 0 0 0 1 1 1 1 1 1 1 0 0 0 0 0 0 0 0 0 0 0 1 1 1
0 0 0 0 0 0 0 0 0 0 0 0 1 1 1 1 1 1 1 1 0 0 0 0 0 0 0 0 0 0 0 0 0 0 0 0 0 0 0 0 0 0 0 0 0 0 0 0 0
0 0 0 0 0 0 0 0 0 0 0 0 1 1 1 1 1 1 1 1 0 0 0 0 0 0 0 0 0 0 0 0 0 0 0 0 0 0 0 0 0 0 0 0 0 0 0 0 0
0 0 0 0 0 0 0 0 0 0 0 1 1 1 1 1 1 1 1 1 0 0 0 0 0 0 0 0 0 0 0 0 0 0 0 0 0 0 0 0 0 0 0 0 0 0 0 0 0
0 0 0 0 0 0 0 0 0 0 0 1 1 1 1 1 1 1 1 1 0 0 0 0 0 0 0 0 0 0 0 0 0 0 0 0 0 0 0 0 0 0 0 0 0 0 0 0 0
0 0 0 0 0 0 0 0 0 0 0 0 1 1 1 1 1 1 1 1 0 0 0 0 0 0 0 0 0 0 0 0 0 0 0 0 0 0 0 0 0 0 0 0 0 0 0 0 0
0 0 0 0 0 0 0 0 0 0 0 0 1 1 1 1 1 1 1 1 0 0 0 0 0 0 0 0 0 0 0 0 0 0 0 0 0 0 0 0 0 0 0 0 0 0 0 0 0
0 0 0 0 0 0 0 0 0 0 0 1 1 1 1 1 1 1 1 1 0 0 0 0 0 0 0 0 0 0 0 0 0 0 0 0 0 0 0 0 0 0 0 0 0 0 0 0 0
0 0 0 0 0 0 0 0 0 0 0 1 1 1 1 1 1 1 1 1 0 0 0 0 0 0 0 0 0 0 0 0 0 0 0 0 0 0 0 0 0 0 0 0 0 0 0 0 0
0 0 0 0 0 0 0 0 0 0 0 1 1 1 1 1 1 1 1 1 0 0 0 0 0 0 0 0 0 0 0 0 0 0 0 0 0 0 0 0 0 0 0 0 0 0 0 0 0
0 0 0 0 0 0 0 0 0 0 0 0 1 1 1 1 1 1 1 0 0 0 0 0 0 0 0 0 0 0 0 0 0 0 0 0 0 0 0 0 0 0 0 0 0 0 0 0 0
Wind_Speed
10 13 11 9 8 9 13 9 3 8 7 9 9 12 15 14 10 11 10 15 20 18 16 15 15 14 14 14 14 13 13 12 12 11 11 10 10 10 11 11 10 10 10 10 10 10 10 10 10
11 14 10 8 9 11 11 8 6 10 10 10 9 12 15 13 12 12 12 15 19 18 15 15 15 14 13 14 14 13 13 13 12 11 10 10 10 10 10 10 10 10 10 10 10 9 9 9 9
13 16 9 8 12 13 7 6 10 12 9 8 8 11 11 9 10 10 13 16 17 17 16 15 15 13 13 13 13 13 13 13 12 11 10 10 9 9 9 9 9 9 9 9 9 9 8 8 8
9 9 8 10 14 11 2 6 9 10 8 8 11 11 10 7 7 12 14 15 17 17 17 15 14 14 13 13 13 13 13 12 12 11 10 9 9 8 8 8 8 8 8 8 8 8 7 7 6
10 8 11 13 14 6 5 7 6 7 8 8 11 12 11 8 12 14 13 14 16 17 15 14 14 14 13 12 13 12 12 11 11 10 10 9 8 8 7 7 7 7 7 7 7 7 6 5 5
8 8 11 13 12 5 5 6 4 4 6 10 14 12 10 8 12 11 13 13 16 16 15 14 14 14 13 12 12 11 11 11 10 10 9 9 8 8 7 7 7 6 6 6 6 6 5 4 3
11 11 14 16 9 6 6 6 6 5 6 6 10 10 10 9 10 10 12 13 15 15 14 12 12 12 12 12 11 11 10 10 10 9 8 8 8 7 7 6 6 6 6 6 6 5 5 4 3
11 12 17 15 9 6 8 6 3 4 7 6 7 10 11 11 10 11 11 12 13 13 12 10 11 10 10 10 11 10 10 10 9 9 9 8 8 7 7 7 7 6 6 6 6 6 5 5 5
14 13 15 13 6 7 9 8 8 8 9 9 12 14 16 15 13 12 11 11 11 11 10 9 9 9 9 10 10 9 9 8 8 8 8 8 6 7 7 8 9 8 7 7 7 6 6 6 7
11 12 13 6 2 7 8 8 9 9 11 14 17 18 18 14 13 12 11 11 11 10 9 7 8 8 8 8 7 6 6 6 6 6 7 6 4 4 5 9 10 9 8 7 8 8 8 8 6
13 14 8 3 6 4 6 6 5 8 9 13 17 17 15 13 11 11 11 10 9 8 7 7 6 5 5 5 5 4 3 4 4 5 5 4 3 3 4 4 6 6 7 6 6 7 7 7 6
13 9 4 1 3 2 4 6 6 11 12 14 14 16 15 13 11 10 10 10 9 8 7 7 5 5 4 4 2 2 2 2 2 3 4 2 1 1 1 2 4 4 3 4 4 5 6 6 5
12 7 4 3 4 5 6 6 11 14 16 16 15 15 14 13 11 10 10 10 9 7 6 7 6 5 4 3 1 2 2 2 1 1 1 0 0 1 1 0 0 2 2 3 3 3 2 2 3
9 7 7 7 7 6 7 8 8 13 14 16 15 13 13 12 12 11 10 10 9 7 7 6 6 5 4 3 2 1 1 2 1 1 1 1 0 1 1 1 1 2 1 1 2 2 1 1 2
8 8 8 7 8 8 10 10 9 13 14 15 14 13 13 13 12 11 10 9 9 8 7 5 5 5 4 3 2 1 1 1 1 1 1 1 1 1 1 1 2 2 2 1 1 2 2 2 3
10 10 10 10 11 12 12 9 9 11 13 14 14 13 13 12 12 11 11 9 9 8 6 5 4 4 4 3 2 2 2 2 1 2 2 1 2 1 1 2 2 3 2 1 1 2 1 1 2
10 11 10 10 14 13 9 10 10 10 11 13 14 14 13 12 12 11 10 9 9 7 6 5 4 3 3 3 2 2 2 2 2 2 2 2 3 2 2 2 2 3 2 1 2 1 1 2 2
10 11 10 12 12 12 9 11 13 13 12 12 14 14 13 12 12 11 10 10 8 7 6 5 4 4 3 2 2 1 2 2 2 2 2 2 2 2 2 2 2 2 1 1 2 2 2 2 2
9 9 10 9 8 9 8 11 12 13 13 13 13 13 14 13 12 11 10 9 8 7 6 5 5 4 2 1 1 1 1 1 2 2 2 2 2 3 2 2 1 1 1 1 2 2 2 2 2
10 9 7 6 7 7 7 10 12 14 13 13 13 13 14 14 13 11 10 9 8 7 6 5 4 4 3 2 1 1 1 1 2 1 2 2 3 3 2 2 2 2 1 1 2 2 2 3 2
11 8 9 8 8 8 7 8 10 11 11 12 13 15 15 15 14 12 11 9 8 7 6 5 5 4 4 3 2 2 1 1 1 2 2 2 3 3 3 4 3 3 2 2 2 2 2 3 3
6 6 6 9 9 6 7 6 9 10 9 11 12 14 15 15 14 13 11 10 9 8 7 6 5 4 4 3 3 2 1 1 1 1 1 1 2 2 3 3 3 3 2 3 3 3 3 3 3
7 7 9 9 8 7 8 7 7 9 10 10 11 12 13 15 14 13 12 10 9 9 7 6 5 5 4 4 4 3 3 2 2 1 1 1 1 3 4 4 4 3 3 3 3 3 3 3 2
6 6 8 7 6 10 9 9 7 8 9 10 10 10 11 14 14 14 12 11 9 8 8 7 6 5 5 5 5 5 5 4 3 3 2 1 2 2 4 4 4 3 3 3 3 3 3 3 3
5 5 4 5 5 8 6 6 2 4 6 8 10 11 12 13 14 14 13 11 9 8 8 7 6 5 5 5 5 5 4 3 4 3 3 3 3 3 4 4 4 3 3 3 3 3 2 3 3
5 5 5 4 5 6 4 4 1 2 5 8 10 11 12 12 13 13 12 10 9 9 8 8 6 6 5 5 4 4 4 3 3 4 3 3 3 3 3 3 3 4 4 4 3 3 2 2 3
6 6 5 5 8 6 3 2 2 2 6 8 11 12 11 11 12 12 11 9 9 8 7 7 6 5 5 4 4 4 4 4 4 3 4 3 3 3 4 4 4 4 4 4 4 2 3 3 3
6 4 3 4 6 6 2 2 1 3 5 8 10 11 11 11 11 12 10 9 8 7 7 7 6 5 5 4 3 4 4 4 4 4 4 4 4 4 3 3 3 3 4 4 4 3 3 3 3
6 5 3 3 5 5 3 0 1 4 7 8 9 10 10 10 11 10 9 9 8 7 7 6 5 5 4 4 4 4 4 4 4 3 4 4 4 3 4 4 4 4 4 4 4 4 4 4 3
7 7 4 4 5 4 3 2 4 5 7 8 9 10 9 9 9 9 8 8 7 6 5 5 4 4 3 3 4 4 4 4 4 4 4 3 3 3 4 4 4 5 5 4 4 4 4 4 4
Wind_Direction
264 255 249 250 244 238 247 242 144 104 96 80 64 78 77 60 71 97 114 113 114 118 123 124 125 129 133 136 135 133 133 131 128 124 118 112 108 104 102 102 102 102 103 105 106 106 104 101 99
268 255 242 246 247 243 235 214 134 104 90 96 93 91 86 76 83 108 116 117 119 123 128 123 125 127 132 136 136 135 137 136 133 129 125 119 113 108 106 105 105 105 106 107 108 108 107 105 104
262 261 248 240 241 253 258 129 120 109 110 118 101 74 71 77 90 108 119 122 118 118 115 118 123 124 130 135 137 137 139 139 137 134 130 125 119 114 111 110 109 109 109 110 110 110 111 111 109
248 230 239 248 249 242 209 105 113 121 132 133 112 89 80 61 96 114 124 125 119 116 114 117 119 121 126 133 138 138 139 141 141 139 135 131 126 122 120 117 116 115 116 116 116 115 115 113 112
243 246 238 250 251 241 110 96 109 148 143 128 110 100 92 83 102 118 125 121 118 114 115 118 116 119 123 129 134 137 138 140 141 141 139 136 131 128 127 126 125 124 125 125 124 122 121 120 119
232 234 242 246 238 203 132 123 150 155 130 125 112 105 95 106 113 119 120 119 114 115 116 119 119 122 124 128 131 134 137 139 140 141 141 139 138 137 136 137 138 139 139 139 138 137 136 134 135
249 258 259 258 236 178 142 147 170 164 138 110 115 110 114 120 118 118 117 114 113 117 122 130 130 128 126 126 130 135 138 140 141 143 145 146 146 147 147 148 150 154 157 158 155 157 160 165 174
249 273 274 264 240 165 138 141 134 117 100 85 105 117 131 135 132 120 118 113 113 115 121 130 136 133 137 135 135 139 141 143 146 148 154 157 159 163 167 169 168 170 173 176 176 179 185 193 205
246 259 267 262 217 142 138 145 124 105 97 79 73 101 125 136 134 129 122 112 108 110 120 132 134 138 143 141 139 145 148 150 156 161 168 173 183 183 187 186 168 181 187 191 193 197 205 212 218
232 247 257 290 98 130 150 167 154 136 117 99 93 102 125 137 137 135 129 122 118 122 129 132 136 146 149 142 141 154 165 163 181 175 178 198 207 198 190 158 169 184 194 203 209 213 218 227 223
233 249 273 18 49 95 145 157 159 157 129 120 123 127 132 133 133 128 118 114 117 122 117 116 116 122 124 126 150 158 166 164 197 183 192 211 213 193 163 163 170 186 198 208 207 216 226 226 232
241 253 281 140 115 146 149 149 109 85 99 107 120 127 127 129 126 116 111 110 107 101 92 84 83 83 86 101 122 143 136 157 194 179 204 201 226 257 179 185 180 192 201 206 198 228 229 239 241
239 235 228 188 178 179 161 124 102 100 107 115 124 125 127 126 119 109 103 102 103 95 85 85 78 72 77 89 108 124 118 144 168 153 239 192 237 278 283 256 194 216 200 194 208 236 242 263 282
226 215 200 201 187 178 141 121 124 121 121 122 126 127 128 120 116 112 107 102 96 86 75 76 77 72 69 82 72 45 110 129 152 133 96 22 295 285 287 267 267 268 246 199 203 240 249 249 278
230 210 197 201 188 181 165 158 145 133 134 130 130 123 115 110 107 103 98 96 95 87 73 70 76 68 63 66 67 53 42 78 103 107 77 26 290 256 275 273 260 265 258 240 220 237 235 232 251
225 215 205 198 199 197 196 159 136 152 147 140 132 125 118 110 108 104 100 96 94 94 88 73 76 75 69 59 39 39 48 51 50 57 58 27 318 339 312 271 260 272 265 241 234 247 258 262 265
218 218 213 205 205 201 195 148 154 179 154 147 138 132 128 122 117 113 109 103 100 97 92 85 71 70 77 86 77 73 64 43 39 46 39 1 340 332 284 269 278 284 277 262 258 229 230 240 249
215 214 211 212 201 207 182 148 163 188 168 159 149 143 142 134 126 119 112 105 100 96 91 86 81 66 61 80 91 80 73 76 66 59 32 3 340 323 284 253 251 264 276 286 287 282 249 237 240
229 221 212 217 212 218 173 159 177 189 177 168 156 152 147 134 130 126 121 116 109 102 96 85 72 62 47 47 59 104 103 103 93 84 60 23 342 333 318 315 290 289 268 271 281 270 259 239 230
239 227 214 220 210 219 189 177 183 194 183 170 165 156 144 139 138 135 131 123 116 107 96 87 74 58 42 37 26 53 71 92 112 83 55 21 354 350 343 336 336 334 316 295 270 274 265 252 224
243 228 199 212 195 203 196 194 189 191 184 177 170 156 150 152 148 145 138 131 124 115 104 89 69 52 39 27 38 52 72 66 84 82 63 26 11 12 6 1 2 352 345 320 304 291 277 275 259
249 244 216 213 213 205 211 218 198 190 189 187 176 163 160 155 148 147 142 137 130 121 108 94 82 64 47 44 49 52 72 66 51 55 82 43 30 24 28 10 4 349 343 334 323 330 303 285 281
246 240 242 233 226 233 218 230 219 192 192 200 191 172 162 151 149 145 140 133 124 117 111 103 90 73 56 55 59 48 58 59 61 53 82 64 66 48 37 18 9 358 357 353 344 335 324 308 304
251 246 246 251 245 244 238 241 220 197 197 201 190 166 150 145 142 136 131 125 122 120 115 107 97 81 67 61 58 55 59 55 46 31 26 28 55 57 41 23 10 2 0 352 346 332 329 323 319
262 260 252 248 242 258 288 267 255 194 177 190 176 159 147 144 138 136 135 132 130 125 119 114 109 96 83 72 63 58 56 57 51 29 29 29 38 44 31 20 4 359 351 339 342 329 330 328 317
253 247 244 252 260 266 273 266 234 218 159 163 149 136 135 137 136 134 135 133 132 127 122 114 107 97 88 80 68 57 49 50 50 30 22 33 34 38 24 8 2 -0 354 351 345 334 336 336 318
235 250 267 278 276 266 220 206 144 128 113 118 120 124 130 128 127 130 132 131 125 119 114 114 111 106 99 92 86 77 65 55 47 35 30 30 20 27 19 3 6 11 2 353 344 353 354 347 334
259 245 269 267 284 287 245 195 184 120 108 116 119 120 118 119 125 131 132 128 123 120 115 113 113 107 98 93 84 84 73 63 50 42 39 28 19 17 5 6 5 11 6 4 357 355 353 346 331
284 265 262 274 277 290 295 63 35 161 137 129 123 119 120 123 128 131 129 125 125 123 121 118 111 108 104 95 85 82 77 68 57 44 37 28 15 7 11 6 10 11 11 8 2 357 353 356 348
282 284 277 277 289 303 312 55 20 95 106 118 118 117 116 115 122 124 124 125 128 127 120 114 113 113 108 103 98 86 74 66 55 46 35 27 18 16 20 17 17 12 15 7 6 4 6 3 360